1536390001.22,56345,16.88,74164.0,4.87,3.29,3.33,0,*7C
1536390002.47,56346,16.88,74166.3,4.87,3.33,3.45,0,*75
1536390003.7,56347,16.88,74164.3,4.87,3.49,3.55,0,*78
1536390004.89,56348,16.88,74164.5,4.89,3.53,3.59,0,*7E
1536390006.11,56349,16.88,74170.5,4.89,3.49,3.49,0,*75
1536390007.32,56350,16.88,74162.8,4.89,3.53,3.53,0,*7D
1536390008.57,56351,16.88,74166.3,4.91,3.53,3.53,0,*75
1536390009.82,56352,16.88,74166.3,4.91,3.41,3.37,0,*77
1536390011.07,56353,16.88,74162.3,4.91,3.53,3.41,0,*74
1536390012.32,56354,16.88,74166.8,4.91,3.53,3.41,0,*73
1536390013.52,56355,16.88,74166.8,4.89,3.63,3.33,0,*7D
1536390014.72,56356,16.88,74164.5,4.91,3.55,3.25,0,*75
1536390015.93,56357,16.88,74160.5,4.95,3.41,2.99,0,*73
1536390017.16,56358,16.88,74166.5,4.95,3.19,2.77,0,*71
1536390018.41,56359,16.88,74166.5,4.93,3.19,2.85,0,*7B
1536390019.64,56360,16.88,74164.3,4.93,3.53,3.25,0,*74
1536390020.9,56361,16.88,74162.3,4.93,3.07,2.73,0,*76
1536390022.13,56362,16.88,74164.3,4.93,2.91,2.55,0,*7F
1536390023.4,56363,16.88,74168.8,4.93,3.15,2.69,0,*7C
1536390024.63,56364,16.88,74168.0,4.95,3.33,2.51,0,*72
1536390025.84,56365,16.88,74160.8,4.95,2.95,2.17,0,*7C
1536390027.07,56366,16.88,74158.5,4.93,2.95,2.21,0,*7C
1536390028.3,56367,16.88,74162.3,4.95,2.77,2.05,0,*71
1536390029.53,56368,16.88,74164.5,4.95,2.51,2.05,0,*7A
1536390030.76,56369,16.88,74166.5,4.95,2.47,2.01,0,*78
1536390031.97,56370,16.88,74166.0,4.95,2.51,1.75,0,*77
1536390033.2,56371,16.88,74168.0,4.95,2.25,1.63,0,*72
1536390034.41,56372,16.88,74172.5,4.95,2.27,1.55,0,*76
1536390035.61,56373,16.88,74174.5,4.99,1.93,1.05,0,*72
1536390036.81,56374,16.88,74170.8,4.97,1.41,0.09,0,*79
1536390038.0,56375,16.88,74166.5,4.99,0.37,-1.25,0,*64
1536390039.23,56376,16.88,74166.0,4.99,-1.17,-2.63,0,*78
1536390040.45,56377,16.88,74164.0,4.97,-2.31,-4.57,0,*71
1536390041.64,56378,16.88,74164.5,4.99,-4.41,-6.85,0,*7C
1536390042.87,56379,16.88,74166.5,4.97,-6.69,-8.51,0,*7C
1536390044.09,56380,16.88,74166.5,4.99,-7.83,-8.51,0,*71
1536390045.31,56381,16.81,74160.0,4.99,-8.67,-8.51,0,*75
1536390046.5,56382,16.88,74164.3,4.99,-9.19,-8.25,0,*7D
1536390047.75,56383,16.88,74164.3,4.99,-9.15,-7.43,0,*7F
1536390049.0,56384,16.88,74162.0,5.01,-7.23,-4.85,0,*7A
1536390050.25,56385,16.88,74162.5,5.01,-5.15,-3.71,0,*70
1536390051.48,56386,16.88,74162.8,5.01,-4.85,-3.83,0,*76
1536390052.67,56387,16.88,74166.8,5.03,-5.39,-4.61,0,*78
1536390053.89,56388,16.88,74162.3,5.07,-5.65,-3.79,0,*74
1536390055.08,56389,16.88,74166.0,5.07,-5.51,-3.19,0,*74
1536390056.31,56390,16.88,74168.8,5.09,-6.43,-3.43,0,*7D
1536390057.55,56391,16.88,74164.0,5.09,-5.65,-2.15,0,*79
1536390058.76,56392,16.88,74166.3,5.13,-4.99,-1.79,0,*7A
1536390059.99,56393,16.88,74166.0,5.11,-5.07,-0.97,0,*4E
1536390061.22,56394,16.88,74166.8,5.13,-5.03,-0.61,0,*46
1536390062.46,56395,16.88,74166.8,5.13,-4.77,0.29,0,*64
1536390063.69,56396,16.88,74164.5,5.15,-3.59,1.37,0,*54
1536390064.92,56397,16.88,74170.8,5.17,-1.75,2.25,0,*5B
1536390066.11,56398,16.88,74168.0,5.19,-1.67,1.75,0,*5F
1536390067.33,56399,16.88,74170.0,5.21,-1.71,1.93,0,*5A
1536390068.56,56400,16.88,74168.0,5.23,-2.47,1.55,0,*53
1536390069.8,56401,16.88,74166.5,5.25,-2.71,2.05,0,*57
1536390071.02,56402,16.88,74168.0,5.29,-2.59,2.47,0,*54
1536390072.23,56403,16.88,74166.5,5.31,-2.27,2.95,0,*5A
1536390073.4,56404,16.88,74170.0,5.33,-1.59,3.25,0,*5F
1536390074.67,56405,16.88,74170.0,5.35,-1.13,3.33,0,*51
1536390075.87,56406,16.88,74168.0,5.41,-0.19,3.03,0,*69
1536390077.07,56407,16.88,74166.5,5.41,-0.07,2.51,0,*51
1536390078.26,56408,16.88,74164.5,5.41,0.01,2.13,0,*73
1536390079.49,56409,16.88,74162.5,5.43,0.13,1.89,0,*43
1536390080.7,56410,16.88,74166.0,5.45,0.29,1.13,0,*47
1536390081.92,56411,16.88,74164.3,5.45,0.25,0.59,0,*75
1536390083.12,56412,16.88,74166.5,5.49,-0.23,-0.11,0,*70
1536390084.3,56413,16.88,74166.3,5.49,-0.77,-0.37,0,*74
1536390085.5,56414,16.88,74162.0,5.49,-1.75,-1.09,0,*7C
1536390086.72,56415,16.88,74166.3,5.51,-2.31,-1.71,0,*78
1536390087.99,56416,16.88,74166.3,5.51,-3.59,-2.07,0,*76
1536390089.21,56417,16.88,74166.0,5.51,-3.35,-0.73,0,*4C
1536390090.38,56418,16.88,74162.3,5.53,-4.09,-0.69,0,*42
1536390091.61,56419,16.88,74164.0,5.57,-2.83,0.51,0,*65
1536390092.84,56420,16.88,74162.5,5.53,-1.05,1.21,0,*50
1536390094.04,56421,16.88,74160.0,5.53,0.33,1.63,0,*4E
1536390095.25,56422,16.88,74162.0,5.53,0.33,1.63,0,*4D
1536390096.47,56423,16.88,74164.5,5.57,-0.11,1.55,0,*60
1536390097.66,56424,16.88,74162.0,5.59,-0.61,1.47,0,*6D
1536390098.89,56425,16.88,74164.5,5.57,-0.45,2.09,0,*6D
1536390100.08,56426,16.88,74162.0,5.59,-0.23,2.31,0,*6B
1536390101.25,56427,16.88,74160.3,5.59,-0.15,2.31,0,*6F
1536390102.47,56428,16.88,74164.0,5.61,-0.07,2.73,0,*5E
1536390103.68,56429,16.88,74166.0,5.63,-0.11,2.81,0,*67
1536390104.91,56430,16.88,74162.3,5.63,-1.05,2.47,0,*51
1536390106.11,56431,16.88,74164.5,5.67,-0.37,3.07,0,*61
1536390107.3,56432,16.88,74166.8,5.69,-0.61,3.25,0,*6F
1536390108.51,56433,16.88,74164.8,5.69,0.41,4.23,0,*40
1536390109.72,56434,16.88,74166.0,5.73,0.25,4.23,0,*4E
1536390110.92,56435,16.88,74164.0,5.75,0.55,4.37,0,*4B
1536390112.14,56436,16.88,74166.0,5.77,0.91,4.53,0,*40
1536390113.39,56437,16.88,74166.8,5.77,1.51,4.71,0,*7C
1536390114.6,56438,16.88,74164.5,5.79,2.55,5.11,0,*7D
1536390115.82,56439,16.88,74166.0,5.79,3.97,5.85,0,*7E
1536390117.04,56440,16.88,74166.0,5.81,4.41,5.85,0,*7B
1536390118.23,56441,16.88,74166.8,5.83,4.57,5.81,0,*7B
1536390119.48,56442,16.88,74166.5,5.85,5.05,5.89,0,*70
1536390120.68,56443,16.88,74162.8,5.89,4.85,5.45,0,*74
1536390121.89,56444,16.88,74162.8,5.89,4.81,5.23,0,*77
1536390123.08,56445,16.88,74162.3,5.91,4.89,5.33,0,*76
1536390124.27,56446,16.88,74160.8,5.91,5.07,5.33,0,*72
1536390125.45,56447,16.88,74160.8,5.95,5.29,5.49,0,*76
1536390126.66,56448,16.88,74164.0,5.93,5.11,5.37,0,*7D
1536390127.87,56449,16.88,74160.0,5.93,5.07,5.33,0,*7F
1536390129.05,56450,16.88,74162.0,5.95,5.19,5.45,0,*7F
1536390130.23,56451,16.88,74162.8,5.95,5.15,5.37,0,*77
1536390131.42,56452,16.88,74160.3,5.95,4.81,5.15,0,*78
1536390132.68,56453,16.88,74160.5,5.97,4.97,5.27,0,*7D
1536390133.95,56454,16.88,74162.8,5.97,4.71,5.01,0,*76
1536390135.2,56455,16.88,74158.5,5.99,4.59,4.93,0,*79
1536390136.44,56456,16.88,74160.8,5.99,4.63,4.75,0,*7B
1536390137.65,56457,16.88,74162.5,5.99,4.63,4.85,0,*75
1536390138.86,56458,16.88,74162.5,5.99,4.81,4.93,0,*71
1536390140.1,56459,16.88,74158.3,5.99,4.63,4.63,0,*73
1536390141.31,56460,16.88,74158.0,5.99,4.53,4.63,0,*7A
1536390142.55,56461,16.88,74160.5,6.01,4.15,4.31,0,*7C
1536390143.78,56462,16.88,74156.8,6.01,4.41,4.63,0,*79
1536390145.02,56463,16.88,74158.0,6.01,4.41,4.63,0,*78
1536390146.23,56464,16.88,74156.3,6.01,4.41,4.57,0,*78
1536390147.42,56465,16.88,74158.8,6.03,4.19,4.53,0,*72
1536390148.63,56466,16.88,74160.8,6.03,4.41,4.63,0,*7F
1536390149.84,56467,16.88,74158.5,6.01,4.07,4.41,0,*7E
1536390151.03,56468,16.88,74160.8,6.03,4.27,4.57,0,*76
1536390152.27,56469,16.88,74160.0,6.01,4.49,4.67,0,*7E
1536390153.47,56470,16.88,74162.8,6.03,4.49,4.67,0,*74
1536390154.69,56471,16.88,74164.0,6.03,4.53,4.79,0,*71
1536390155.9,56472,16.88,74168.0,6.03,4.53,4.79,0,*72
1536390157.11,56473,16.88,74164.8,6.05,4.57,4.89,0,*7E
1536390158.32,56474,16.88,74162.8,6.05,4.81,5.15,0,*76
1536390159.53,56475,16.88,74162.5,6.07,4.93,5.15,0,*76
1536390160.72,56476,16.88,74160.0,6.07,5.15,5.37,0,*7A
1536390161.96,56477,16.88,74164.3,6.09,4.97,5.19,0,*72
1536390163.22,56478,16.88,74160.3,6.09,5.05,5.27,0,*7A
1536390164.43,56479,16.88,74166.3,6.13,4.85,5.07,0,*7B
1536390165.67,56480,16.88,74166.0,6.13,5.01,5.23,0,*76
1536390166.86,56481,16.88,74160.0,6.15,4.85,5.19,0,*75
1536390168.12,56482,16.88,74166.5,6.17,5.05,5.27,0,*70
1536390169.33,56483,16.88,74166.3,6.15,4.67,4.89,0,*73
1536390170.56,56484,16.88,74164.3,6.17,4.57,4.79,0,*7A
1536390171.77,56485,16.88,74166.0,6.15,4.31,4.49,0,*7A
1536390172.96,56486,16.88,74164.3,6.19,4.33,4.57,0,*78
1536390174.21,56487,16.88,74162.0,6.17,4.01,4.31,0,*76
1536390175.4,56488,16.88,74162.5,6.15,4.15,4.41,0,*79
1536390176.59,56489,16.88,74164.5,6.15,4.15,4.41,0,*78
1536390177.8,56490,16.88,74162.0,6.17,4.23,4.45,0,*73
1536390178.99,56491,16.88,74162.8,6.15,4.27,4.41,0,*70
1536390180.17,56492,16.88,74164.3,6.15,4.19,4.37,0,*7F
1536390181.36,56493,16.88,74162.3,6.15,4.37,4.41,0,*73
1536390182.57,56494,16.88,74160.5,6.15,3.97,4.07,0,*7B
1536390183.77,56495,16.88,74164.0,6.15,3.55,3.67,0,*75
1536390185.03,56496,16.88,74160.3,6.09,3.41,3.53,0,*79
1536390186.29,56497,16.88,74162.5,6.13,3.37,3.41,0,*71
1536390187.52,56498,16.88,74160.8,6.07,3.53,3.53,0,*7A
1536390188.75,56499,16.88,74166.5,6.07,4.01,4.05,0,*7F
1536390189.99,56500,16.88,74164.5,6.07,4.01,4.05,0,*7E
1536390191.2,56501,16.88,74160.3,6.07,3.93,4.01,0,*77
1536390192.41,56502,16.88,74166.0,6.05,4.07,4.19,0,*75
1536390193.66,56503,16.88,74162.0,6.05,3.53,3.49,0,*70
1536390194.87,56504,16.88,74162.3,6.03,3.33,3.25,0,*7D
1536390196.13,56505,16.88,74164.5,6.01,3.37,3.37,0,*79
1536390197.34,56506,16.88,74162.0,6.01,3.25,3.25,0,*7A
1536390198.55,56507,16.88,74164.5,5.99,2.91,2.85,0,*7C
1536390199.8,56508,16.88,74166.0,5.97,2.77,2.69,0,*77
1536390201.07,56509,16.88,74166.5,5.97,3.15,3.15,0,*79
1536390202.33,56510,16.88,74164.0,5.97,3.15,3.19,0,*7D
1536390203.59,56511,16.88,74164.3,5.97,3.37,3.49,0,*79
1536390204.85,56512,16.88,74162.5,5.97,3.15,3.15,0,*73
1536390206.12,56513,16.88,74160.3,5.93,3.11,3.11,0,*76
1536390207.36,56514,16.88,74164.3,5.93,3.15,3.25,0,*72
1536390208.6,56515,16.88,74164.0,5.91,3.33,3.45,0,*73
1536390209.81,56516,16.88,74162.0,5.91,3.15,3.25,0,*72
1536390211.05,56517,16.88,74162.3,5.89,3.23,3.29,0,*73
1536390212.29,56518,16.88,74160.8,5.91,3.45,3.49,0,*73
1536390213.52,56519,16.88,74160.8,5.89,3.29,3.41,0,*79
1536390214.76,56520,16.88,74162.8,5.89,3.29,3.41,0,*73
1536390216.02,56521,16.88,74162.8,5.89,3.33,3.41,0,*79
1536390217.26,56522,16.88,74160.3,5.85,3.41,3.53,0,*70
1536390218.49,56523,16.88,74162.0,5.89,3.53,3.63,0,*7D
1536390219.71,56524,16.88,74162.5,5.89,3.55,3.71,0,*7F
1536390220.93,56525,16.88,74160.3,5.85,3.63,3.67,0,*70
1536390222.15,56526,16.88,74162.8,5.85,3.63,3.67,0,*73
1536390223.36,56527,16.88,74162.5,5.85,3.59,3.67,0,*7B
1536390224.6,56528,16.88,74158.5,5.83,3.41,3.41,0,*7F
1536390225.8,56529,16.88,74162.3,5.83,3.29,3.49,0,*78
1536390227.0,56530,16.88,74160.0,5.83,3.59,3.67,0,*7B
1536390228.2,56531,16.88,74156.5,5.83,3.63,3.67,0,*73
1536390229.39,56532,16.88,74160.8,5.79,2.89,2.91,0,*78
1536390230.64,56533,16.88,74158.8,5.81,2.77,2.89,0,*76
1536390231.86,56534,16.88,74160.3,5.79,3.03,3.11,0,*74
1536390233.11,56535,16.88,74160.5,5.81,3.23,3.33,0,*70
1536390234.31,56536,16.88,74160.0,5.79,3.45,3.55,0,*74
1536390235.56,56537,16.88,74160.5,5.77,3.23,3.33,0,*7B
1536390236.78,56538,16.88,74160.3,5.77,3.29,3.33,0,*7E
1536390237.99,56539,16.88,74162.3,5.75,3.29,3.41,0,*78
1536390239.24,56540,16.88,74162.3,5.77,3.33,3.41,0,*7F
1536390240.46,56541,16.88,74158.8,5.75,3.03,3.07,0,*7D
1536390241.71,56542,16.88,74156.0,5.77,3.23,3.33,0,*79
1536390242.94,56543,16.88,74162.0,5.75,3.03,3.03,0,*7B
1536390244.2,56544,16.88,74164.0,5.73,3.15,3.07,0,*79
1536390245.39,56545,16.88,74158.5,5.73,2.91,2.95,0,*7F
1536390246.62,56546,16.88,74158.8,5.71,3.03,3.15,0,*7D
1536390247.84,56547,16.88,74162.5,5.71,3.11,3.03,0,*78
1536390249.08,56548,16.88,74164.3,5.69,3.33,3.37,0,*79
1536390250.34,56549,16.88,74164.3,5.69,3.11,3.03,0,*7F
1536390251.54,56550,16.88,74166.5,5.67,2.69,2.61,0,*72
1536390252.76,56551,16.88,74168.3,5.69,3.23,2.99,0,*75
1536390253.95,56552,16.88,74164.5,5.67,2.73,2.35,0,*7A
1536390255.17,56553,16.88,74164.3,5.67,2.25,1.85,0,*70
1536390256.4,56554,16.88,74160.8,5.63,2.43,2.09,0,*74
1536390257.59,56555,16.88,74166.3,5.63,2.35,1.89,0,*7F
1536390258.83,56556,16.88,74166.5,5.61,2.43,1.89,0,*7F
1536390260.08,56557,16.88,74164.3,5.61,2.59,2.13,0,*75
1536390261.32,56558,16.88,74164.0,5.61,2.69,2.13,0,*79
1536390262.57,56559,16.88,74164.5,5.61,2.81,2.09,0,*75
1536390263.79,56560,16.88,74166.8,5.61,2.61,1.97,0,*75
1536390265.01,56561,16.88,74166.3,5.61,2.55,1.83,0,*76
1536390266.2,56562,16.88,74166.8,5.61,2.31,1.75,0,*7E
1536390267.43,56563,16.88,74164.8,5.61,1.83,1.37,0,*73
1536390268.63,56564,16.88,74166.3,5.59,1.83,1.33,0,*7B
1536390269.84,56565,16.88,74164.8,5.59,2.21,1.93,0,*7B
1536390271.04,56566,16.88,74166.3,5.59,2.31,2.05,0,*75
1536390272.27,56567,16.88,74162.5,5.61,2.47,2.35,0,*7D
1536390273.51,56568,16.88,74160.5,5.61,2.47,2.69,0,*7B
1536390274.76,56569,16.88,74164.3,5.61,2.81,3.03,0,*7D
1536390276.0,56570,16.88,74166.0,5.61,2.85,3.19,0,*7A
1536390277.2,56571,16.88,74160.3,5.63,3.03,3.55,0,*7E
1536390278.4,56572,16.88,74164.3,5.63,3.15,3.85,0,*77
1536390279.62,56573,16.88,74164.3,5.69,3.45,4.15,0,*77
1536390280.84,56574,16.88,74162.8,5.69,3.63,4.31,0,*72
1536390282.06,56575,16.88,74162.3,5.71,3.97,4.67,0,*72
1536390283.3,56576,16.88,74160.8,5.73,3.97,4.59,0,*7E
1536390284.54,56577,16.88,74164.8,5.73,4.01,4.59,0,*77
1536390285.8,56578,16.88,74158.8,5.77,4.31,4.93,0,*79
1536390287.03,56579,16.88,74162.3,5.81,4.53,4.97,0,*71
1536390288.28,56580,16.88,74166.5,5.81,4.31,4.63,0,*78
1536390289.49,56581,16.88,74164.0,5.83,4.71,5.11,0,*7B
1536390290.74,56582,16.88,74162.5,5.85,4.71,5.05,0,*7B
1536390292.0,56583,16.88,74162.5,5.85,4.59,5.01,0,*74
1536390293.22,56584,16.88,74160.8,5.91,4.79,5.23,0,*74
1536390294.43,56585,16.88,74160.0,5.95,5.11,5.51,0,*7B
1536390295.64,56586,16.88,74162.0,5.95,5.11,5.51,0,*78
1536390296.85,56587,16.88,74166.0,5.99,5.15,5.55,0,*75
1536390298.08,56588,16.88,74164.8,6.01,5.23,5.55,0,*7D
1536390299.29,56589,16.88,74164.0,6.03,5.01,5.37,0,*7A
1536390300.48,56590,16.88,74164.5,6.03,5.23,5.59,0,*7A
1536390301.69,56591,16.88,74166.5,6.07,5.37,5.73,0,*72
1536390302.94,56592,16.88,74164.5,6.09,5.55,5.89,0,*7E
1536390304.14,56593,16.88,74170.5,6.13,5.45,5.71,0,*72
1536390305.38,56594,16.88,74166.8,6.13,4.97,5.23,0,*7C
1536390306.61,56595,16.88,74166.8,6.15,4.67,4.79,0,*7A
1536390307.83,56596,16.88,74166.0,6.17,4.89,5.07,0,*73
1536390309.03,56597,16.88,74166.0,6.15,4.49,4.63,0,*7F
1536390310.22,56598,16.88,74166.8,6.15,4.37,4.53,0,*7A
1536390311.42,56599,16.88,74164.0,6.15,4.53,4.59,0,*73
1536390312.63,56600,16.88,74162.8,6.17,4.41,4.57,0,*7F
1536390313.85,56601,16.88,74166.8,6.15,4.31,4.37,0,*7D
1536390315.06,56602,16.88,74166.8,6.19,4.75,4.81,0,*7F
1536390316.32,56603,16.88,74164.8,6.17,4.63,4.71,0,*78
1536390317.53,56604,16.88,74168.0,6.19,4.75,4.81,0,*79
1536390318.77,56605,16.88,74168.5,6.19,4.67,4.75,0,*70
1536390320.0,56606,16.88,74166.5,6.19,4.67,4.67,0,*70
1536390321.18,56607,16.88,74170.8,6.21,4.49,4.57,0,*75
1536390322.37,56608,16.88,74168.0,6.19,4.45,4.45,0,*7E
1536390323.56,56609,16.88,74170.5,6.19,4.37,4.37,0,*7F
1536390324.77,56610,16.88,74168.5,6.19,4.15,4.05,0,*76
1536390326.01,56611,16.88,74166.0,6.19,3.79,3.75,0,*7A
1536390327.27,56612,16.88,74166.3,6.17,3.53,3.41,0,*78
1536390328.48,56613,16.88,74166.0,6.15,3.89,3.79,0,*77
1536390329.71,56614,16.88,74164.8,6.17,3.71,3.63,0,*7E
1536390330.94,56615,16.88,74162.8,6.15,3.49,3.45,0,*72
1536390332.17,56616,16.88,74164.5,6.15,3.49,3.45,0,*71
1536390333.4,56617,16.88,74168.3,6.15,3.37,3.37,0,*7C
1536390334.58,56618,16.88,74166.8,6.15,3.59,3.55,0,*7F
1536390335.78,56619,16.88,74164.8,6.15,3.55,3.49,0,*7F
1536390336.99,56620,16.88,74168.8,6.13,3.81,3.81,0,*7E
1536390338.19,56621,16.88,74168.0,6.13,3.55,3.59,0,*73
1536390339.42,56622,16.88,74168.5,6.09,3.23,3.29,0,*7D
1536390340.69,56623,16.88,74164.8,6.09,3.11,3.07,0,*71
1536390341.93,56624,16.88,74166.3,6.07,3.07,3.07,0,*7F
1536390343.17,56625,16.88,74168.3,6.05,3.15,3.25,0,*7F
1536390344.41,56626,16.88,74170.0,6.07,3.33,3.45,0,*7C
1536390345.64,56627,16.88,74164.5,6.05,3.49,3.63,0,*76
1536390346.84,56628,16.88,74170.0,6.07,3.55,3.79,0,*7D
1536390348.04,56629,16.88,74168.0,6.05,3.63,3.85,0,*78
1536390349.27,56630,16.88,74166.0,6.05,3.29,3.53,0,*75
1536390350.49,56631,16.88,74164.0,6.03,3.25,3.33,0,*78
1536390351.72,56632,16.88,74164.0,6.01,3.25,3.37,0,*7D
1536390352.96,56633,16.88,74164.5,6.03,3.37,3.33,0,*79
1536390354.21,56634,16.88,74164.8,6.01,3.23,3.23,0,*78
1536390355.47,56635,16.88,74164.8,6.01,3.49,3.37,0,*70
1536390356.72,56636,16.88,74164.3,6.01,3.49,3.37,0,*73
1536390357.96,56637,16.88,74166.8,6.01,3.25,3.15,0,*78
1536390359.14,56638,16.88,74168.5,5.99,3.29,2.95,0,*70
1536390360.38,56639,16.88,74166.0,5.97,3.25,2.77,0,*7F
1536390361.59,56640,16.88,74166.5,5.99,2.95,2.25,0,*72
1536390362.84,56641,16.88,74166.8,5.97,2.47,1.47,0,*75
1536390364.07,56642,16.88,74164.3,5.97,1.75,0.63,0,*43
1536390365.3,56643,16.88,74162.5,5.95,1.47,0.51,0,*40
1536390366.52,56644,16.88,74166.0,5.95,1.47,0.67,0,*42
1536390367.76,56645,16.88,74168.0,5.95,1.25,0.47,0,*45
1536390369.03,56646,16.88,74172.3,5.93,1.33,0.47,0,*47
1536390370.26,56647,16.88,74168.5,5.91,1.55,0.75,0,*45
1536390371.49,56648,16.88,74168.3,5.91,1.47,0.63,0,*4E
1536390372.72,56649,16.88,74168.3,5.91,1.17,0.13,0,*4D
1536390373.95,56650,16.88,74168.0,5.91,1.09,-0.41,0,*60
1536390375.18,56651,16.88,74174.3,5.89,0.71,-1.51,0,*66
1536390376.38,56652,16.88,74170.5,5.89,0.09,-2.95,0,*51
1536390377.62,56653,16.88,74174.5,5.89,-1.51,-5.11,0,*7A
1536390378.87,56654,16.88,74174.5,5.89,-2.83,-5.27,0,*74
1536390380.08,56655,16.88,74170.0,5.85,-3.11,-4.37,0,*73
1536390381.34,56656,16.88,74170.0,5.85,-2.11,-2.55,0,*73
1536390382.53,56657,16.88,74170.3,5.83,-1.33,-1.33,0,*74
1536390383.72,56658,16.88,74164.3,5.83,-0.23,0.05,0,*62
1536390384.94,56659,16.88,74170.3,5.85,0.97,1.13,0,*41
1536390386.18,56660,16.88,74166.8,5.85,1.71,1.59,0,*7C
1536390387.4,56661,16.88,74170.5,5.85,2.13,1.83,0,*7D
1536390388.64,56662,16.88,74166.3,5.89,2.27,1.85,0,*73
1536390389.87,56663,16.88,74170.3,5.89,2.61,2.09,0,*77
1536390391.09,56664,16.88,74168.3,5.91,2.55,1.67,0,*75
1536390392.33,56665,16.88,74168.0,5.93,2.31,0.71,0,*42
1536390393.58,56666,16.88,74168.3,5.93,2.13,0.13,0,*45
1536390394.82,56667,16.88,74166.8,5.93,1.89,-0.49,0,*66
1536390396.06,56668,16.88,74168.3,5.93,1.21,-0.65,0,*65
1536390397.25,56669,16.88,74168.0,5.95,1.01,-0.69,0,*6C
1536390398.51,56670,16.88,74170.5,5.93,0.71,-1.01,0,*6B
1536390399.76,56671,16.88,74170.3,5.93,0.37,-1.87,0,*66
1536390401.0,56672,16.88,74170.3,5.95,0.21,-3.59,0,*65
1536390402.24,56673,16.88,74170.5,5.93,-1.13,-5.43,0,*72
1536390403.46,56674,16.88,74172.0,5.95,-2.35,-6.23,0,*71
1536390404.65,56675,16.88,74170.8,5.95,-2.83,-6.09,0,*75
1536390405.9,56676,16.88,74168.0,5.93,-2.87,-5.11,0,*7E
1536390407.12,56677,16.88,74168.8,5.93,-3.03,-4.33,0,*73
1536390408.37,56678,16.88,74170.0,5.93,-2.55,-3.03,0,*7A
1536390409.59,56679,16.88,74164.3,5.93,-1.51,-1.75,0,*7F
1536390410.76,56680,16.88,74170.8,5.95,0.01,-0.15,0,*61
1536390412.03,56681,16.88,74168.3,5.97,1.13,0.63,0,*4C
1536390413.23,56682,16.88,74170.0,5.99,1.63,0.43,0,*44
1536390414.42,56683,16.88,74168.5,5.99,1.75,-0.11,0,*68
1536390415.66,56684,16.88,74170.8,6.03,1.71,-0.27,0,*6E
1536390416.89,56685,16.88,74168.5,6.03,1.33,-0.37,0,*68
1536390418.1,56686,16.88,74170.5,6.03,1.29,0.01,0,*78
1536390419.31,56687,16.88,74170.3,6.07,1.29,0.01,0,*7D
1536390420.54,56688,16.88,74168.5,6.05,1.25,-0.03,0,*53
1536390421.81,56689,16.88,74170.3,6.05,1.21,-0.23,0,*64
1536390423.05,56690,16.88,74168.0,6.07,1.29,-0.23,0,*66
1536390424.26,56691,16.88,74168.5,6.07,1.47,-0.07,0,*59
1536390425.5,56692,16.88,74170.8,6.07,1.51,-0.23,0,*6B
1536390426.74,56693,16.88,74168.0,6.07,1.85,-0.23,0,*63
1536390427.98,56694,16.88,74168.8,6.07,1.85,-1.09,0,*5D
1536390429.21,56695,16.88,74168.3,6.07,1.13,-2.15,0,*5D
1536390430.42,56696,16.88,74170.8,6.07,0.83,-2.43,0,*65
1536390431.67,56697,16.88,74174.8,6.09,0.17,-3.43,0,*66
1536390432.88,56698,16.88,74168.0,6.09,-0.57,-3.23,0,*46
1536390434.09,56699,16.88,74168.0,6.09,-0.33,-2.79,0,*4B
1536390435.28,56700,16.88,74170.3,6.07,-0.07,-3.15,0,*78
1536390436.47,56701,16.88,74170.3,6.07,-0.33,-4.25,0,*4A
1536390437.74,56702,16.88,74168.0,6.09,-0.93,-4.85,0,*47
1536390438.98,56703,16.88,74170.8,6.09,-1.59,-5.27,0,*78
1536390440.23,56704,16.88,74170.5,6.09,-3.15,-7.35,0,*74
1536390441.46,56705,16.88,74168.0,6.09,-4.37,-7.11,0,*74
1536390442.67,56706,16.88,74168.5,6.09,-4.37,-6.69,0,*79
1536390443.92,56707,16.88,74170.3,6.09,-4.57,-6.93,0,*7B
1536390445.15,56708,16.88,74168.8,6.09,-5.51,-7.23,0,*79
1536390446.37,56709,16.88,74168.8,6.07,-7.23,-7.91,0,*78
1536390447.57,56710,16.88,74168.0,6.07,-6.39,-5.51,0,*74
1536390448.81,56711,16.88,74170.5,6.05,-4.85,-3.83,0,*7B
1536390450.0,56712,16.88,74174.5,6.07,-5.35,-4.09,0,*75
1536390451.23,56713,16.88,74170.5,6.07,-7.53,-4.89,0,*7E
1536390452.42,56714,16.88,74174.0,6.07,-6.85,-3.15,0,*71
1536390453.64,56715,16.88,74170.8,6.07,-7.05,-2.43,0,*7B
1536390454.84,56716,16.88,74168.0,6.07,-6.39,-1.33,0,*72
1536390456.05,56717,16.88,74166.8,6.07,-4.21,0.17,0,*62
1536390457.27,56718,16.88,74168.0,6.07,-2.79,1.29,0,*5A
1536390458.51,56719,16.88,74170.8,6.13,-1.17,2.39,0,*57
1536390459.76,56720,16.88,74168.5,6.13,0.55,3.71,0,*4A
1536390461.02,56721,16.88,74172.8,6.17,1.43,4.01,0,*79
1536390462.22,56722,16.88,74174.0,6.21,1.51,4.11,0,*7D
1536390463.42,56723,16.88,74174.3,6.21,2.25,4.49,0,*71
1536390464.63,56724,16.88,74170.0,6.25,2.95,4.79,0,*7A
1536390465.82,56725,16.88,74172.3,6.25,3.25,4.85,0,*72
1536390467.05,56726,16.88,74168.0,6.27,3.81,5.27,0,*74
1536390468.27,56727,16.88,74170.8,6.31,4.07,5.07,0,*79
1536390469.48,56728,16.88,74170.3,6.35,3.89,4.85,0,*78
1536390470.66,56729,16.88,74170.5,6.37,4.41,5.29,0,*7F
1536390471.86,56730,16.88,74168.8,6.39,4.85,5.49,0,*77
1536390473.08,56731,16.88,74168.0,6.41,4.71,5.07,0,*78
1536390474.26,56732,16.88,74168.5,6.41,4.45,4.57,0,*78
1536390475.51,56733,16.88,74170.8,6.43,4.67,4.59,0,*75
1536390476.71,56734,16.88,74170.5,6.45,4.75,4.53,0,*7D
1536390477.94,56735,16.88,74170.8,6.47,4.53,4.01,0,*7D
1536390479.14,56736,16.88,74170.8,6.47,3.59,2.61,0,*73
1536390480.36,56737,16.88,74168.5,6.47,3.33,2.35,0,*7F
1536390481.61,56738,16.88,74170.5,6.47,3.41,1.97,0,*7E
1536390482.83,56739,16.88,74170.3,6.45,2.85,0.83,0,*40
1536390484.03,56740,16.88,74170.0,6.49,2.59,0.01,0,*79
1536390485.24,56741,16.88,74170.5,6.49,1.89,-1.29,0,*50
1536390486.48,56742,16.88,74168.5,6.49,1.55,-1.91,0,*51
1536390487.67,56743,16.88,74166.5,6.49,1.05,-2.23,0,*5F
1536390488.89,56744,16.88,74170.8,6.49,0.71,-3.51,0,*6E
1536390490.12,56745,16.88,74170.3,6.49,-0.23,-5.73,0,*43
1536390491.34,56746,16.88,74168.8,6.49,-1.87,-8.45,0,*77
1536390492.6,56747,16.88,74172.8,6.47,-2.03,-8.11,0,*76
1536390493.83,56748,16.88,74174.3,6.47,-2.75,-8.63,0,*7D
1536390495.05,56749,16.88,74172.3,6.45,-2.95,-8.51,0,*71
1536390496.31,56750,16.88,74172.5,6.43,-3.43,-8.03,0,*72
1536390497.55,56751,16.88,74174.8,6.43,-3.43,-6.47,0,*7D
1536390498.79,56752,16.88,74170.8,6.43,-2.87,-4.85,0,*7B
1536390499.98,56753,16.88,74172.3,6.41,-1.67,-3.19,0,*77
1536390501.17,56754,16.88,74170.8,6.41,-0.57,-1.67,0,*49
1536390502.38,56755,16.88,74174.0,6.41,-0.11,-1.09,0,*42
1536390503.61,56756,16.88,74176.3,6.39,0.63,-0.11,0,*5E
1536390504.84,56757,16.88,74172.8,6.39,1.37,1.05,0,*76
1536390506.09,56758,16.88,74172.5,6.39,2.09,1.89,0,*73
1536390507.32,56759,16.88,74172.8,6.39,2.31,1.97,0,*76
1536390508.57,56760,16.88,74172.3,6.35,2.47,2.05,0,*79
1536390509.81,56761,16.88,74172.3,6.37,2.47,2.17,0,*79
1536390511.03,56762,16.88,74172.0,6.39,2.27,1.97,0,*79
1536390512.29,56763,16.88,74172.8,6.35,1.63,1.51,0,*7D
1536390513.54,56764,16.88,74170.8,6.35,1.43,1.51,0,*78
1536390514.8,56765,16.88,74172.5,6.35,1.55,1.85,0,*77
1536390516.05,56766,16.88,74170.5,6.35,1.67,1.93,0,*72
1536390517.25,56767,16.88,74174.8,6.31,1.05,1.41,0,*7C
1536390518.5,56768,16.88,74168.3,6.31,1.97,2.21,0,*7D
1536390519.73,56769,16.88,74174.8,6.29,2.21,2.43,0,*7F
1536390520.96,56770,16.88,74174.5,6.31,3.03,2.95,0,*74
1536390522.2,56771,16.88,74170.8,6.29,3.11,3.11,0,*72
1536390523.43,56772,16.88,74172.0,6.29,3.03,3.11,0,*72
1536390524.66,56773,16.88,74172.0,6.29,3.03,3.03,0,*70
1536390525.84,56774,16.88,74172.5,6.29,2.91,2.91,0,*77
1536390527.11,56775,16.88,74172.0,6.27,3.23,3.15,0,*7D
1536390528.31,56776,16.88,74172.5,6.29,3.29,3.23,0,*7F
1536390529.54,56777,16.88,74170.3,6.29,3.23,3.15,0,*71